Regional Weather Roundup
Issued by NWS

Home | Current Version | Previous Version | Graphics & Text | Print | Product List | Glossary On
Versions: 1 2 3 4 5 6 7 8 9 10 11 12 13 14 15 16 17 18 19 20 21 22 23 24 25 26 27 28 29 30 31 32 33 34 35 36 37 38 39 40 41 42 43 44 45 46 47 48 49 50
000
ASUS45 KCYS 071910
RWRWY

WYOMING REGIONAL WEATHER ROUNDUP
NATIONAL WEATHER SERVICE CHEYENNE WY
100 PM MDT TUE JUL 07 2015

NOTE:  "FAIR" INDICATES FEW OR NO CLOUDS BELOW 12,000 FEET
WITH NO SIGNIFICANT WEATHER AND/OR OBSTRUCTIONS TO VISIBILITY.

WYZ001-072000-
YELLOWSTONE NATIONAL PARK

CITY           SKY/WX    TMP DP  RH WIND       PRES   REMARKS
LK YELLOWSTONE   N/A     60  44  55 E5        30.28F
W YELLOWSTONE  NOT AVBL

$$
WYZ002>013-054>058-071-098>099-072000-
NORTHERN WYOMING

CITY           SKY/WX    TMP DP  RH WIND       PRES   REMARKS
JACKSON        FAIR      72  46  40 NW3       30.16F
CODY           FAIR      75  48  38 NE9       30.10F
GREYBULL       FAIR      79  50  36 CALM      30.02F
WORLAND        FAIR      76  55  48 VRB7      30.05F
SHERIDAN       FAIR      75  49  39 S3        30.07F
BUFFALO        LGT RAIN  66  55  67 W14       30.13S
GILLETTE       PTSUNNY   76  48  37 CALM      30.07F
HULETT         FAIR      73  52  46 W7        30.10F
NEWCASTLE      FAIR      72  54  53 MISG      30.12F HAZE

$$
WYZ014>020-022>026-101>103-072000-
CENTRAL WYOMING

CITY           SKY/WX    TMP DP  RH WIND       PRES   REMARKS
BIG PINEY      FAIR      67  50  54 W9        30.20F
PINEDALE       FAIR      70  46  43 NE5       30.19F
DUBOIS         FAIR      66  46  48 SE16      30.19F THUNDER
LANDER         FAIR      71  51  49 CALM      30.12F
RIVERTON       PTSUNNY   73  51  46 MISG      30.11F
CASPER         FAIR      77  43  29 E8        30.09F
DOUGLAS        FAIR      74  54  49 S10       30.11F HAZE

$$
WYZ021-027>030-104>119-072000-
SOUTHERN WYOMING

CITY           SKY/WX    TMP DP  RH WIND       PRES   REMARKS
EVANSTON       PTSUNNY   69  48  47 MISG      30.20F
KEMMERER       MOCLDY    72  46  40 N7        30.21F
FORT BRIDGER   PTCLDY    70  52  52 CALM      30.23F
ROCK SPRINGS   FAIR      68  52  56 CALM      30.18F
DIXON          FAIR      71  51  50 W5        30.19F
RAWLINS        FAIR      68  52  56 S8        30.18F
SARATOGA       CLOUDY    63  50  63 NE3       30.22F
LARAMIE        CLOUDY    64  52  64 SE8       30.20F
CHEYENNE       CLOUDY    62  53  72 S10       30.20F HAZE
TORRINGTON     FAIR      68  54  60 SE21      30.13F HAZE
PINE BLUFFS    CLOUDY    64  52  63 SE10      30.19F

$$



USA.gov is the U.S. government's official web portal to all federal, state and local government web resources and services.